STARLINK-34489 (64679 NORAD) Tracking and Keplerian Element Data

This shows tracking and keplerian element data for the satellite.

Feedback or suggestion? Click here.




ElementValue
Catalog64679
NameSTARLINK-34489
Epoch Orbit2803
Epoch Day353.6992601
Epoch Year2025
RAAN138.8369
Inclination53.1579
Eccentricity0.0001707
Argument of Perigee302.5732
Mean Anonmoly57.5104
Mean Motion15.30179452
Decay Rate0.00029016
L11 64679U 25139R 25353.69926010 .00029016 00000+0 98858-3 0 9991
L22 64679 53.1579 138.8369 0001707 302.5732 57.5104 15.30179452 28031



Live tracking and technical data element details for STARLINK-34489 (NORAD 64679). STARLINK-34489 can be tracked NOW for your location showing map with azimuth and elevation plus other details from your city location.







IsCatalogInMostPopularTable: catalog: 64679, numindb: 10
Update: records affected: 1



GetName: 64679 STARLINK-34489

Hit Count: updated at: Tue, 10 Feb 2026 02:22:50 GMT